Regional Weather Roundup
Issued by NWS

Home | Current Version | Previous Version | Text Only | Print | Product List | Glossary Off
Versions: 1 2 3 4 5 6 7 8 9 10 11 12 13 14 15 16 17 18 19 20 21 22 23 24 25 26 27 28 29 30 31 32 33 34 35 36 37 38 39 40 41 42 43 44 45 46 47 48 49 50

000
ASUS43 KLOT 222303
RWRIL

ILLINOIS REGIONAL WEATHER ROUNDUP
NATIONAL WEATHER SERVICE CHICAGO/ROMEOVILLE IL
600 PM CDT FRI MAY 22 2015

NOTE: "FAIR" INDICATES FEW OR NO CLOUDS BELOW 12,000 FEET WITH NO
SIGNIFICANT WEATHER AND/OR OBSTRUCTIONS TO VISIBILITY.

* THESE STATIONS ARE NOT UNDER NWS QUALITY CONTROL. THEY ALSO MAY NOT
  REPORT WEATHER SUCH AS PRECIPITATION OR FOG.

ILZ001-002-007-009-015-016-024-230000-
NORTHWEST ILLINOIS

CITY           SKY/WX    TMP DP  RH WIND       PRES   REMARKS
MOLINE         MOSUNNY   73  38  27 SW6       30.18S
STERLING*      CLOUDY    72  45  37 N3        30.19S
$$

ILZ003-004-008-010-011-017-018-230000-
NORTH CENTRAL ILLINOIS

CITY           SKY/WX    TMP DP  RH WIND       PRES   REMARKS
ROCKFORD       CLOUDY    72  38  29 CALM      30.23R
$$

ILZ005-006-012>014-019>023-230000-
NORTHEAST ILLINOIS

CITY           SKY/WX    TMP DP  RH WIND       PRES   REMARKS
CHICAGO-OHARE  CLOUDY    60  25  26 E12       30.26R
CHICAGO-MIDWAY PTSUNNY   58  30  34 E14       30.26S
AURORA         PTSUNNY   69  34  27 E14       30.22S
WAUKEGAN       PTSUNNY   53  27  36 E7        30.26S
DUPAGE AIRPORT CLOUDY    65  31  28 E14       30.24R
WHEELING       PTSUNNY   57  24  28 E8        30.28R
NORTHERLY ISL    N/A     50  35  56 E5          N/A
$$

LMZ740>746-230000-
SOUTHERN LAKE MICHIGAN

STATION/POSITION SKY/WX   TEMP    WIND        PRES    VSBY  WAVE
                          AIR SEA DIR/SP/G                  HT/PER
                          (F)     (DEG/KT/KT) (MB)    (MI)  (FT/S)
SOUTHERN BUOY              42 38   50/ 10/ 10 1025.5F         0
HARRISON CRIB              48      50/ 10/ 11   N/A
BURNHAM HARBOR             52     360/  7/ 10   N/A
CALUMET HARBOR             50      40/  5/  7   N/A
BURNS HARBOR               53      50/ 12/ 12 1025.4R
MICHIGAN CITY              52      30/ 12/ 13   N/A
MICHIGAN CITY 6N           51 51   70/ 10/ 12   N/A           2/ 3
ST. JOSEPH                 52 53   60/ 14/ 16   N/A           2/ 3
$$

ILZ025>027-034>036-040-047-049-050-058-095>099-230000-
WEST-CENTRAL ILLINOIS

CITY           SKY/WX    TMP DP  RH WIND       PRES   REMARKS
QUINCY         CLOUDY    71  51  49 SW10      30.21S
$$

ILZ028>032-037-038-041>044-048-051>054-059>061-230000-
CENTRAL ILLINOIS

CITY           SKY/WX    TMP DP  RH WIND       PRES   REMARKS
DECATUR        MOSUNNY   75  40  28 SW5       30.21R
PEORIA         MOSUNNY   77  42  28 CALM      30.19S
SPRINGFIELD    MOSUNNY   77  42  28 CALM      30.20F
TAYLORVILLE    NOT AVBL
$$

ILZ033-039-045-046-055>057-062-063-230000-
EAST-CENTRAL ILLINOIS

CITY           SKY/WX    TMP DP  RH WIND       PRES   REMARKS
CHAMPAIGN      CLOUDY    77  39  25 W6        30.21R
MATTOON        CLOUDY    74  41  30 W7        30.20S
$$

ILZ079-100>102-230000-
SOUTHWEST ILLINOIS

CITY           SKY/WX    TMP DP  RH WIND       PRES   REMARKS
BELLEVILLE     CLOUDY    74  51  43 W5        30.21S
CAHOKIA*       CLOUDY    74  50  42 W3        30.22F
$$

ILZ064>066-069>071-074>076-080>082-084>086-088>090-092>094-230000-
SOUTH-CENTRAL ILLINOIS

CITY           SKY/WX    TMP DP  RH WIND       PRES   REMARKS
CARBONDALE     CLOUDY    70  52  52 SW6       30.25S
MARION         MOSUNNY   72  54  53 SW12      30.26S
MT. VERNON     CLOUDY    73  52  46 SW9       30.24S
$$

ILZ067-068-072-073-078-083-087-091-230000-
SOUTHEAST ILLINOIS

CITY           SKY/WX    TMP DP  RH WIND       PRES   REMARKS
LAWRENCEVILLE  CLOUDY    73  46  38 W5        30.23S
$$

ABBREVIATIONS USED IN REMARKS
   TC - TEMPERATURE IN CELSIUS
  WCI - WIND CHILL INDEX
   HX - HEAT INDEX
  VSB - VISIBILITY
$$




USA.gov is the U.S. government's official web portal to all federal, state and local government web resources and services.